TimePDT,TemperatureF,Dew PointF,Humidity,Sea Level PressureIn,VisibilityMPH,Wind Direction,Wind SpeedMPH,Gust SpeedMPH,PrecipitationIn,Events,Conditions,WindDirDegrees,DateUTC
12:53 AM,68.0,55.9,65,29.97,10.0,WNW,8.1,-,N/A,,Clear,300,2013-08-12 07:53:00
2:53 AM,66.9,55.9,68,29.96,10.0,WNW,6.9,-,N/A,,Clear,290,2013-08-12 09:53:00
3:53 AM,63.0,52.0,67,29.96,10.0,West,3.5,-,N/A,,Clear,260,2013-08-12 10:53:00
4:53 AM,63.0,54.0,72,29.97,10.0,Calm,Calm,-,N/A,,Clear,0,2013-08-12 11:53:00
5:53 AM,61.0,53.1,75,29.98,10.0,West,3.5,-,N/A,,Clear,280,2013-08-12 12:53:00
6:53 AM,61.0,53.1,75,29.99,10.0,Calm,Calm,-,N/A,,Clear,0,2013-08-12 13:53:00
7:53 AM,66.9,55.9,68,29.99,10.0,NW,6.9,-,N/A,,Clear,310,2013-08-12 14:53:00
8:53 AM,70.0,55.9,61,30.00,10.0,NW,11.5,-,N/A,,Clear,320,2013-08-12 15:53:00
9:53 AM,73.9,55.0,52,29.99,10.0,NNW,16.1,21.9,N/A,,Clear,330,2013-08-12 16:53:00
10:53 AM,77.0,54.0,45,29.99,10.0,NNW,16.1,-,N/A,,Clear,330,2013-08-12 17:53:00
11:53 AM,82.0,53.1,37,29.97,10.0,NW,12.7,-,N/A,,Clear,320,2013-08-12 18:53:00
12:53 PM,84.9,52.0,32,29.94,10.0,NNW,11.5,-,N/A,,Clear,330,2013-08-12 19:53:00
1:53 PM,87.1,50.0,28,29.93,10.0,NNW,11.5,-,N/A,,Clear,330,2013-08-12 20:53:00
2:53 PM,88.0,52.0,29,29.92,10.0,NNW,16.1,-,N/A,,Clear,330,2013-08-12 21:53:00
3:53 PM,88.0,51.1,28,29.90,10.0,NW,20.7,26.5,N/A,,Clear,320,2013-08-12 22:53:00
4:53 PM,88.0,52.0,29,29.89,10.0,WNW,15.0,24.2,N/A,,Clear,290,2013-08-12 23:53:00
5:53 PM,84.9,50.0,30,29.89,10.0,WNW,16.1,26.5,N/A,,Clear,300,2013-08-13 00:53:00
6:53 PM,82.0,50.0,33,29.91,10.0,West,17.3,25.3,N/A,,Clear,280,2013-08-13 01:53:00
7:53 PM,79.0,53.1,40,29.93,10.0,WNW,17.3,21.9,N/A,,Clear,290,2013-08-13 02:53:00
8:53 PM,75.9,52.0,43,29.96,10.0,WNW,13.8,-,N/A,,Clear,300,2013-08-13 03:53:00
9:53 PM,73.0,54.0,51,29.97,10.0,WNW,19.6,25.3,N/A,,Clear,300,2013-08-13 04:53:00
10:53 PM,72.0,53.1,51,29.98,10.0,NW,15.0,-,N/A,,Clear,310,2013-08-13 05:53:00
11:53 PM,72.0,52.0,49,29.99,10.0,WNW,12.7,18.4,N/A,,Clear,290,2013-08-13 06:53:00